| time (UTC) | temp F | wind direction | speed MPH | gust MPH | rain 1hr in | rain 24hr in | rain mn in | humidity % | barometer mb |
| 20260506023005 | 54 | 252 | 4.0 | 12.0 | 0.00 | 0.00 | 0.00 | 81 | 1099.8 |
| 20260506022504 | 54 | 222 | 5.0 | 9.0 | 0.00 | 0.00 | 0.00 | 80 | 1099.8 |
| 20260506022005 | 54 | 243 | 3.0 | 8.0 | 0.00 | 0.00 | 0.00 | 80 | 1099.8 |
| 20260506021505 | 54 | 243 | 4.0 | 9.0 | 0.00 | 0.00 | 0.00 | 80 | 1099.8 |
| 20260506021004 | 54 | 237 | 3.0 | 9.0 | 0.00 | 0.00 | 0.00 | 80 | 1099.8 |
| 20260506020504 | 54 | 237 | 5.0 | 12.0 | 0.00 | 0.00 | 0.00 | 80 | 1099.8 |
| 20260506020004 | 54 | 237 | 5.0 | 12.0 | 0.00 | 0.00 | 0.00 | 80 | 1099.8 |
| 20260506015504 | 54 | 183 | 4.0 | 14.0 | 0.00 | 0.00 | 0.00 | 79 | 1099.8 |
| 20260506014504 | 54 | 229 | 4.0 | 8.0 | 0.00 | 0.00 | 0.00 | 79 | 1099.8 |
| 20260506014005 | 55 | 218 | 3.0 | 12.0 | 0.00 | 0.00 | 0.00 | 78 | 1099.8 |
| 20260506013506 | 55 | 215 | 4.0 | 12.0 | 0.00 | 0.00 | 0.00 | 78 | 1099.8 |
| 20260506013004 | 55 | 208 | 5.0 | 14.0 | 0.00 | 0.00 | 0.00 | 78 | 1099.8 |
| 20260506012004 | 55 | 252 | 2.0 | 9.0 | 0.00 | 0.00 | 0.00 | 79 | 1099.8 |
| 20260506011504 | 55 | 252 | 5.0 | 8.0 | 0.00 | 0.00 | 0.00 | 79 | 1099.8 |
| 20260506011005 | 55 | 252 | 4.0 | 9.0 | 0.00 | 0.00 | 0.00 | 79 | 1099.8 |
| 20260506010504 | 55 | 252 | 3.0 | 8.0 | 0.00 | 0.00 | 0.00 | 80 | 1099.8 |
| 20260506010004 | 54 | 252 | 5.0 | 9.0 | 0.00 | 0.00 | 0.00 | 80 | 1099.8 |
| 20260506005504 | 54 | 252 | 3.0 | 7.0 | 0.00 | 0.00 | 0.00 | 80 | 1099.8 |
| 20260506005004 | 54 | 252 | 3.0 | 7.0 | 0.00 | 0.00 | 0.00 | 80 | 1099.8 |
| 20260506004505 | 54 | 252 | 3.0 | 10.0 | 0.00 | 0.00 | 0.00 | 81 | 1099.8 |
| 20260506003505 | 54 | 208 | 5.0 | 13.0 | 0.00 | 0.00 | 0.00 | 81 | 1099.8 |
| 20260506003005 | 55 | 248 | 5.0 | 13.0 | 0.00 | 0.00 | 0.00 | 80 | 1099.8 |
| 20260506002505 | 55 | 207 | 5.0 | 14.0 | 0.00 | 0.00 | 0.00 | 80 | 1099.8 |
| 20260506002005 | 55 | 233 | 5.0 | 13.0 | 0.00 | 0.00 | 0.00 | 80 | 1099.8 |
| 20260506001504 | 55 | 189 | 5.0 | 14.0 | 0.00 | 0.00 | 0.00 | 80 | 1099.8 |
| 20260506000505 | 55 | 232 | 4.0 | 12.0 | 0.00 | 0.00 | 0.00 | 79 | 1099.8 |
| 20260506000004 | 55 | 187 | 6.0 | 16.0 | 0.00 | 0.00 | 0.00 | 79 | 1099.8 |
| 20260505235504 | 55 | 234 | 3.0 | 9.0 | 0.00 | 0.00 | 0.00 | 79 | 1099.8 |
| 20260505234505 | 56 | 222 | 6.0 | 13.0 | 0.00 | 0.00 | 0.00 | 79 | 1099.8 |
| 20260505233504 | 56 | 191 | 6.0 | 14.0 | 0.00 | 0.00 | 0.00 | 79 | 1099.8 |
| 20260505233005 | 56 | 231 | 5.0 | 15.0 | 0.00 | 0.00 | 0.00 | 79 | 1099.8 |
| 20260505232505 | 56 | 208 | 6.0 | 15.0 | 0.00 | 0.00 | 0.00 | 79 | 1099.8 |
| 20260505232005 | 56 | 224 | 7.0 | 14.0 | 0.00 | 0.00 | 0.00 | 79 | 1099.8 |
| 20260505230504 | 56 | 257 | 5.0 | 10.0 | 0.00 | 0.00 | 0.00 | 79 | 1099.8 |
| 20260505230004 | 56 | 170 | 7.0 | 18.0 | 0.00 | 0.00 | 0.00 | 79 | 1099.8 |
| 20260505225504 | 56 | 210 | 6.0 | 12.0 | 0.00 | 0.00 | 0.00 | 79 | 1099.8 |
| 20260505225006 | 56 | 194 | 6.0 | 20.0 | 0.00 | 0.00 | 0.00 | 78 | 1099.8 |
| 20260505224006 | 56 | 231 | 4.0 | 9.0 | 0.00 | 0.00 | 0.00 | 78 | 1099.8 |
| 20260505223504 | 56 | 170 | 6.0 | 12.0 | 0.00 | 0.00 | 0.00 | 78 | 1099.8 |
| 20260505223004 | 57 | 229 | 6.0 | 20.0 | 0.00 | 0.00 | 0.00 | 77 | 1099.8 |
| 20260505222004 | 57 | 231 | 3.0 | 15.0 | 0.00 | 0.00 | 0.00 | 77 | 1099.8 |
| 20260505221504 | 57 | 228 | 5.0 | 14.0 | 0.00 | 0.00 | 0.00 | 76 | 1099.8 |
| 20260505221005 | 57 | 204 | 7.0 | 20.0 | 0.00 | 0.00 | 0.00 | 76 | 1099.8 |
| 20260505220505 | 58 | 219 | 6.0 | 21.0 | 0.00 | 0.00 | 0.00 | 76 | 1099.8 |
| 20260505220005 | 58 | 221 | 9.0 | 20.0 | 0.00 | 0.00 | 0.00 | 76 | 1099.8 |
| 20260505215504 | 58 | 218 | 4.0 | 15.0 | 0.00 | 0.00 | 0.00 | 76 | 1099.8 |
| 20260505215005 | 58 | 213 | 6.0 | 13.0 | 0.00 | 0.00 | 0.00 | 76 | 1099.8 |
| 20260505214504 | 58 | 217 | 7.0 | 18.0 | 0.00 | 0.00 | 0.00 | 76 | 1099.8 |
| 20260505214005 | 58 | 208 | 8.0 | 14.0 | 0.00 | 0.00 | 0.00 | 75 | 1099.8 |
| 20260505213504 | 58 | 213 | 5.0 | 20.0 | 0.00 | 0.00 | 0.00 | 76 | 1099.8 |
| 20260505213005 | 58 | 231 | 10.0 | 20.0 | 0.00 | 0.00 | 0.00 | 75 | 1099.8 |
| 20260505212505 | 58 | 229 | 7.0 | 24.0 | 0.00 | 0.00 | 0.00 | 75 | 1099.8 |
| 20260505211505 | 59 | 210 | 4.0 | 13.0 | 0.00 | 0.00 | 0.00 | 75 | 1099.8 |
| 20260505211004 | 58 | 222 | 6.0 | 15.0 | 0.00 | 0.00 | 0.00 | 76 | 1099.8 |
| 20260505210505 | 58 | 204 | 6.0 | 16.0 | 0.00 | 0.00 | 0.00 | 75 | 1099.8 |
| 20260505210004 | 59 | 241 | 9.0 | 24.0 | 0.00 | 0.00 | 0.00 | 74 | 1099.8 |
| 20260505205504 | 58 | 219 | 7.0 | 20.0 | 0.00 | 0.00 | 0.00 | 75 | 1099.8 |
| 20260505205004 | 58 | 198 | 7.0 | 25.0 | 0.00 | 0.00 | 0.00 | 76 | 1099.8 |
| 20260505204506 | 58 | 223 | 9.0 | 23.0 | 0.00 | 0.00 | 0.00 | 75 | 1099.8 |
| 20260505204004 | 58 | 218 | 11.0 | 22.0 | 0.00 | 0.00 | 0.00 | 75 | 1099.8 |
| 20260505203504 | 58 | 196 | 9.0 | 26.0 | 0.00 | 0.00 | 0.00 | 75 | 1099.8 |
| 20260505203004 | 59 | 217 | 7.0 | 24.0 | 0.00 | 0.00 | 0.00 | 75 | 1099.8 |
| 20260505202005 | 59 | 223 | 10.0 | 26.0 | 0.00 | 0.00 | 0.00 | 74 | 1099.8 |
| 20260505201504 | 59 | 227 | 9.0 | 18.0 | 0.00 | 0.00 | 0.00 | 74 | 1099.8 |
| 20260505201004 | 59 | 213 | 6.0 | 15.0 | 0.00 | 0.00 | 0.00 | 75 | 1099.8 |
| 20260505200504 | 59 | 205 | 10.0 | 24.0 | 0.00 | 0.00 | 0.00 | 74 | 1099.8 |
| 20260505195505 | 60 | 221 | 9.0 | 23.0 | 0.00 | 0.00 | 0.00 | 73 | 1099.8 |
| 20260505195004 | 59 | 267 | 8.0 | 25.0 | 0.00 | 0.00 | 0.00 | 74 | 1099.8 |
| 20260505194004 | 59 | 216 | 12.0 | 26.0 | 0.00 | 0.00 | 0.00 | 73 | 1099.8 |
| 20260505193505 | 60 | 245 | 9.0 | 18.0 | 0.00 | 0.00 | 0.00 | 74 | 1099.8 |
| 20260505193005 | 60 | 249 | 10.0 | 16.0 | 0.00 | 0.00 | 0.00 | 74 | 1099.8 |
| 20260505192004 | 60 | 218 | 12.0 | 20.0 | 0.00 | 0.00 | 0.00 | 72 | 1099.8 |
| 20260505191504 | 60 | 240 | 7.0 | 18.0 | 0.00 | 0.00 | 0.00 | 73 | 1099.8 |
| 20260505191005 | 60 | 221 | 7.0 | 18.0 | 0.00 | 0.00 | 0.00 | 73 | 1099.8 |
| 20260505190504 | 60 | 212 | 10.0 | 26.0 | 0.00 | 0.00 | 0.00 | 73 | 1099.8 |
| 20260505190004 | 61 | 229 | 10.0 | 21.0 | 0.00 | 0.00 | 0.00 | 72 | 1099.8 |
| 20260505185504 | 60 | 207 | 5.0 | 20.0 | 0.00 | 0.00 | 0.00 | 73 | 1099.8 |
| 20260505185004 | 60 | 199 | 9.0 | 23.0 | 0.00 | 0.00 | 0.00 | 73 | 1099.8 |
| 20260505184504 | 60 | 231 | 6.0 | 22.0 | 0.00 | 0.00 | 0.00 | 73 | 1099.8 |
| 20260505183005 | 60 | 205 | 8.0 | 22.0 | 0.00 | 0.00 | 0.00 | 73 | 1099.8 |
| 20260505182504 | 60 | 221 | 9.0 | 20.0 | 0.00 | 0.00 | 0.00 | 73 | 1099.8 |
| 20260505181505 | 59 | 192 | 8.0 | 25.0 | 0.00 | 0.00 | 0.00 | 74 | 1099.8 |
| 20260505181004 | 60 | 201 | 9.0 | 24.0 | 0.00 | 0.00 | 0.00 | 73 | 1099.8 |
| 20260505180504 | 60 | 212 | 9.0 | 16.0 | 0.00 | 0.00 | 0.00 | 73 | 1099.8 |
| 20260505180005 | 60 | 222 | 9.0 | 20.0 | 0.00 | 0.00 | 0.00 | 73 | 1099.8 |
| 20260505175504 | 60 | 201 | 8.0 | 22.0 | 0.00 | 0.00 | 0.00 | 74 | 1099.8 |
| 20260505175005 | 60 | 200 | 9.0 | 20.0 | 0.00 | 0.00 | 0.00 | 73 | 1099.8 |
| 20260505174505 | 60 | 187 | 6.0 | 20.0 | 0.00 | 0.00 | 0.00 | 73 | 1099.8 |
| 20260505174004 | 60 | 239 | 10.0 | 23.0 | 0.00 | 0.00 | 0.00 | 73 | 1099.8 |
| 20260505173504 | 60 | 197 | 5.0 | 20.0 | 0.00 | 0.00 | 0.00 | 73 | 1099.8 |
| 20260505172504 | 60 | 223 | 7.0 | 20.0 | 0.00 | 0.00 | 0.00 | 73 | 1099.8 |
| 20260505172005 | 60 | 276 | 6.0 | 13.0 | 0.00 | 0.00 | 0.00 | 73 | 1099.8 |
| 20260505171504 | 60 | 226 | 7.0 | 20.0 | 0.00 | 0.00 | 0.00 | 74 | 1099.8 |
| 20260505171005 | 60 | 212 | 7.0 | 16.0 | 0.00 | 0.00 | 0.00 | 74 | 1099.8 |
| 20260505170504 | 60 | 202 | 10.0 | 20.0 | 0.00 | 0.00 | 0.00 | 74 | 1099.8 |
| 20260505170005 | 60 | 181 | 9.0 | 16.0 | 0.00 | 0.00 | 0.00 | 74 | 1099.8 |
| 20260505165505 | 60 | 207 | 10.0 | 20.0 | 0.00 | 0.00 | 0.00 | 73 | 1099.8 |
| 20260505165004 | 60 | 228 | 8.0 | 18.0 | 0.00 | 0.00 | 0.00 | 74 | 1099.8 |
| 20260505164504 | 60 | 230 | 7.0 | 18.0 | 0.00 | 0.00 | 0.00 | 73 | 1099.8 |
| 20260505164005 | 60 | 223 | 6.0 | 14.0 | 0.00 | 0.00 | 0.00 | 74 | 1099.8 |
| 20260505163504 | 60 | 242 | 6.0 | 15.0 | 0.00 | 0.00 | 0.00 | 73 | 1099.8 |
| 20260505163005 | 60 | 192 | 8.0 | 18.0 | 0.00 | 0.00 | 0.00 | 73 | 1099.8 |
| 20260505162505 | 60 | 207 | 9.0 | 22.0 | 0.00 | 0.00 | 0.00 | 73 | 1099.8 |
| 20260505162004 | 60 | 187 | 9.0 | 22.0 | 0.00 | 0.00 | 0.00 | 74 | 1099.8 |
| 20260505161005 | 60 | 203 | 9.0 | 16.0 | 0.00 | 0.00 | 0.00 | 74 | 1099.8 |
| 20260505160504 | 59 | 216 | 13.0 | 26.0 | 0.00 | 0.00 | 0.00 | 73 | 1099.8 |
| 20260505153005 | 60 | 220 | 7.0 | 21.0 | 0.00 | 0.00 | 0.00 | 74 | 1099.8 |
| 20260505152504 | 60 | 221 | 7.0 | 16.0 | 0.00 | 0.00 | 0.00 | 74 | 1099.8 |
| 20260505152004 | 59 | 238 | 8.0 | 24.0 | 0.00 | 0.00 | 0.00 | 75 | 1099.8 |
| 20260505151505 | 60 | 176 | 8.0 | 24.0 | 0.00 | 0.00 | 0.00 | 74 | 1099.8 |
| 20260505151005 | 60 | 181 | 7.0 | 22.0 | 0.00 | 0.00 | 0.00 | 73 | 1099.8 |
| 20260505150504 | 61 | 216 | 6.0 | 15.0 | 0.00 | 0.00 | 0.00 | 74 | 1099.8 |
| 20260505140504 | 59 | 217 | 6.0 | 20.0 | 0.00 | 0.00 | 0.00 | 76 | 1099.8 |
| 20260505125004 | 57 | 219 | 5.0 | 16.0 | 0.00 | 0.00 | 0.00 | 78 | 1099.8 |
| 20260505124504 | 57 | 199 | 8.0 | 18.0 | 0.00 | 0.00 | 0.00 | 78 | 1099.8 |
| 20260505124004 | 57 | 208 | 6.0 | 12.0 | 0.00 | 0.00 | 0.00 | 78 | 1099.8 |
| 20260505123504 | 57 | 256 | 6.0 | 12.0 | 0.00 | 0.00 | 0.00 | 78 | 1099.8 |
| 20260505123005 | 56 | 228 | 6.0 | 20.0 | 0.00 | 0.00 | 0.00 | 78 | 1099.8 |
| 20260505122504 | 56 | 216 | 9.0 | 20.0 | 0.00 | 0.00 | 0.00 | 78 | 1099.8 |
| 20260505122004 | 56 | 210 | 6.0 | 12.0 | 0.00 | 0.00 | 0.00 | 79 | 1099.8 |
| 20260505121504 | 56 | 258 | 4.0 | 14.0 | 0.00 | 0.00 | 0.00 | 79 | 1099.8 |
| 20260505121004 | 56 | 195 | 6.0 | 16.0 | 0.00 | 0.00 | 0.00 | 79 | 1099.8 |
| 20260505120505 | 56 | 223 | 6.0 | 16.0 | 0.00 | 0.00 | 0.00 | 79 | 1099.8 |
| 20260505120005 | 56 | 208 | 4.0 | 12.0 | 0.00 | 0.00 | 0.00 | 80 | 1099.8 |
| 20260505115506 | 56 | 212 | 6.0 | 16.0 | 0.00 | 0.00 | 0.00 | 80 | 1099.8 |
| 20260505115005 | 55 | 224 | 6.0 | 15.0 | 0.00 | 0.00 | 0.00 | 81 | 1099.8 |
| 20260505114504 | 55 | 240 | 3.0 | 10.0 | 0.00 | 0.00 | 0.00 | 81 | 1099.8 |
| 20260505114004 | 55 | 229 | 6.0 | 13.0 | 0.00 | 0.00 | 0.00 | 81 | 1099.8 |
| 20260505113505 | 55 | 235 | 5.0 | 14.0 | 0.00 | 0.00 | 0.00 | 82 | 1099.8 |
| 20260505113005 | 54 | 239 | 6.0 | 12.0 | 0.00 | 0.00 | 0.00 | 82 | 1099.8 |
| 20260505112504 | 54 | 239 | 3.0 | 6.0 | 0.00 | 0.00 | 0.00 | 83 | 1099.8 |
| 20260505112004 | 54 | 239 | 6.0 | 12.0 | 0.00 | 0.00 | 0.00 | 83 | 1099.8 |
| 20260505111506 | 54 | 238 | 3.0 | 8.0 | 0.00 | 0.00 | 0.00 | 83 | 1099.8 |
| 20260505102005 | 50 | 229 | 2.0 | 6.0 | 0.00 | 0.00 | 0.00 | 88 | 1099.8 |
| 20260505101504 | 50 | 229 | 3.0 | 8.0 | 0.00 | 0.00 | 0.00 | 88 | 1099.8 |
| 20260505101005 | 50 | 229 | 1.0 | 7.0 | 0.00 | 0.00 | 0.00 | 88 | 1099.8 |
| 20260505100504 | 50 | 229 | 2.0 | 9.0 | 0.00 | 0.00 | 0.00 | 88 | 1099.8 |
| 20260505100004 | 50 | 229 | 3.0 | 6.0 | 0.00 | 0.00 | 0.00 | 88 | 1099.8 |
| 20260505095505 | 50 | 229 | 1.0 | 5.0 | 0.00 | 0.00 | 0.00 | 88 | 1099.8 |
| 20260505095005 | 50 | 229 | 3.0 | 8.0 | 0.00 | 0.00 | 0.00 | 88 | 1099.8 |
| 20260505094504 | 49 | 229 | 1.0 | 5.0 | 0.00 | 0.00 | 0.00 | 88 | 1099.8 |
| 20260505094005 | 49 | 229 | 3.0 | 7.0 | 0.00 | 0.00 | 0.00 | 88 | 1099.8 |
| 20260505093504 | 50 | 229 | 2.0 | 7.0 | 0.00 | 0.00 | 0.00 | 88 | 1099.8 |
| 20260505093005 | 50 | 229 | 1.0 | 6.0 | 0.00 | 0.00 | 0.00 | 88 | 1099.8 |
| 20260505092505 | 50 | 229 | 3.0 | 8.0 | 0.00 | 0.00 | 0.00 | 88 | 1099.8 |
| 20260505091504 | 50 | 229 | 3.0 | 6.0 | 0.00 | 0.00 | 0.00 | 88 | 1099.8 |
| 20260505091005 | 50 | 229 | 2.0 | 5.0 | 0.00 | 0.00 | 0.00 | 88 | 1099.8 |
| 20260505090505 | 50 | 229 | 2.0 | 8.0 | 0.00 | 0.00 | 0.00 | 88 | 1099.8 |
| 20260505090005 | 50 | 229 | 1.0 | 6.0 | 0.00 | 0.00 | 0.00 | 88 | 1099.8 |
| 20260505085504 | 50 | 229 | 3.0 | 7.0 | 0.00 | 0.00 | 0.00 | 89 | 1099.8 |
| 20260505085005 | 50 | 207 | 2.0 | 9.0 | 0.00 | 0.00 | 0.00 | 89 | 1099.8 |
| 20260505084504 | 50 | 177 | 2.0 | 6.0 | 0.00 | 0.00 | 0.00 | 89 | 1099.8 |
| 20260505084004 | 50 | 192 | 2.0 | 5.0 | 0.00 | 0.00 | 0.00 | 89 | 1099.8 |
| 20260505083505 | 50 | 198 | 1.0 | 8.0 | 0.00 | 0.00 | 0.00 | 89 | 1099.8 |
| 20260505082004 | 50 | 225 | 2.0 | 8.0 | 0.00 | 0.00 | 0.00 | 89 | 1099.8 |
| 20260505081504 | 50 | 215 | 1.0 | 10.0 | 0.00 | 0.00 | 0.00 | 89 | 1099.8 |
| 20260505081004 | 50 | 212 | 3.0 | 8.0 | 0.00 | 0.00 | 0.00 | 89 | 1099.8 |
| 20260505080504 | 50 | 209 | 2.0 | 7.0 | 0.00 | 0.00 | 0.00 | 89 | 1099.8 |
| 20260505080004 | 50 | 199 | 1.0 | 5.0 | 0.00 | 0.00 | 0.00 | 89 | 1099.8 |
| 20260505075504 | 50 | 191 | 2.0 | 13.0 | 0.00 | 0.00 | 0.00 | 89 | 1099.8 |
| 20260505075005 | 50 | 225 | 2.0 | 5.0 | 0.00 | 0.00 | 0.00 | 89 | 1099.8 |
| 20260505074504 | 50 | 225 | 1.0 | 3.0 | 0.00 | 0.00 | 0.00 | 89 | 1099.8 |
| 20260505074004 | 49 | 225 | 2.0 | 7.0 | 0.00 | 0.00 | 0.00 | 89 | 1099.8 |
| 20260505073504 | 49 | 225 | 1.0 | 7.0 | 0.00 | 0.00 | 0.00 | 88 | 1099.8 |
| 20260505073004 | 49 | 225 | 0.0 | 5.0 | 0.00 | 0.00 | 0.00 | 88 | 1099.8 |
| 20260505072505 | 49 | 225 | 2.0 | 5.0 | 0.00 | 0.00 | 0.00 | 88 | 1099.8 |
| 20260505072004 | 49 | 225 | 2.0 | 7.0 | 0.00 | 0.00 | 0.00 | 88 | 1099.8 |
| 20260505071504 | 49 | 225 | 2.0 | 7.0 | 0.00 | 0.00 | 0.00 | 88 | 1099.8 |
| 20260505071005 | 49 | 225 | 3.0 | 8.0 | 0.00 | 0.00 | 0.00 | 88 | 1099.8 |
| 20260505070504 | 50 | 225 | 2.0 | 6.0 | 0.00 | 0.00 | 0.00 | 88 | 1099.8 |
| 20260505065504 | 50 | 225 | 4.0 | 6.0 | 0.00 | 0.00 | 0.00 | 88 | 1099.8 |
| 20260505065005 | 50 | 225 | 1.0 | 3.0 | 0.00 | 0.00 | 0.00 | 88 | 1099.8 |
| 20260505064504 | 50 | 225 | 1.0 | 5.0 | 0.00 | 0.00 | 0.00 | 88 | 1099.8 |
| 20260505064005 | 50 | 225 | 1.0 | 5.0 | 0.00 | 0.00 | 0.00 | 88 | 1099.8 |
| 20260505063505 | 50 | 225 | 3.0 | 8.0 | 0.00 | 0.00 | 0.00 | 88 | 1099.8 |
| 20260505063004 | 50 | 225 | 1.0 | 3.0 | 0.00 | 0.00 | 0.00 | 88 | 1099.8 |
| 20260505062505 | 50 | 225 | 1.0 | 5.0 | 0.00 | 0.00 | 0.00 | 88 | 1099.8 |
| 20260505062004 | 50 | 225 | 1.0 | 3.0 | 0.00 | 0.00 | 0.00 | 88 | 1099.8 |
| 20260505061504 | 50 | 225 | 2.0 | 3.0 | 0.00 | 0.00 | 0.00 | 88 | 1099.8 |
| 20260505061005 | 50 | 225 | 2.0 | 7.0 | 0.00 | 0.00 | 0.00 | 87 | 1099.8 |
| 20260505060505 | 50 | 225 | 3.0 | 6.0 | 0.00 | 0.00 | 0.00 | 87 | 1099.8 |
| 20260505060005 | 50 | 225 | 0.0 | 3.0 | 0.00 | 0.00 | 0.00 | 87 | 1099.8 |
| 20260505055505 | 50 | 225 | 2.0 | 6.0 | 0.00 | 0.00 | 0.00 | 87 | 1099.8 |
| 20260505055004 | 50 | 225 | 1.0 | 7.0 | 0.00 | 0.00 | 0.00 | 87 | 1099.8 |
| 20260505054505 | 50 | 225 | 1.0 | 6.0 | 0.00 | 0.00 | 0.00 | 87 | 1099.8 |
| 20260505054004 | 50 | 225 | 1.0 | 3.0 | 0.00 | 0.00 | 0.00 | 87 | 1099.8 |
| 20260505053505 | 50 | 225 | 1.0 | 3.0 | 0.00 | 0.00 | 0.00 | 86 | 1099.8 |
| 20260505052505 | 50 | 225 | 1.0 | 9.0 | 0.00 | 0.00 | 0.00 | 86 | 1099.8 |
| 20260505052004 | 50 | 225 | 1.0 | 9.0 | 0.00 | 0.00 | 0.00 | 86 | 1099.8 |
| 20260505051504 | 50 | 225 | 2.0 | 8.0 | 0.00 | 0.00 | 0.00 | 86 | 1099.8 |
| 20260505051004 | 50 | 225 | 0.0 | 7.0 | 0.00 | 0.00 | 0.00 | 86 | 1099.8 |
| 20260505050504 | 50 | 225 | 1.0 | 8.0 | 0.00 | 0.00 | 0.00 | 86 | 1099.8 |
| 20260505041504 | 51 | 214 | 3.0 | 9.0 | 0.00 | 0.00 | 0.00 | 85 | 1099.8 |
| 20260505041005 | 51 | 209 | 3.0 | 12.0 | 0.00 | 0.00 | 0.00 | 85 | 1099.8 |
| 20260505040504 | 51 | 189 | 2.0 | 10.0 | 0.00 | 0.00 | 0.00 | 84 | 1099.8 |
| 20260505040005 | 51 | 184 | 3.0 | 7.0 | 0.00 | 0.00 | 0.00 | 84 | 1099.8 |
| 20260505035504 | 51 | 172 | 3.0 | 9.0 | 0.00 | 0.00 | 0.00 | 84 | 1099.8 |
| 20260505035004 | 51 | 212 | 4.0 | 8.0 | 0.00 | 0.00 | 0.00 | 84 | 1099.8 |
| 20260505034504 | 51 | 218 | 1.0 | 7.0 | 0.00 | 0.00 | 0.00 | 84 | 1099.8 |
| 20260505034004 | 51 | 219 | 2.0 | 7.0 | 0.00 | 0.00 | 0.00 | 83 | 1099.8 |
| 20260505033505 | 51 | 206 | 3.0 | 9.0 | 0.00 | 0.00 | 0.00 | 83 | 1099.8 |
| 20260505033005 | 51 | 209 | 5.0 | 9.0 | 0.00 | 0.00 | 0.00 | 83 | 1099.8 |
| 20260505032504 | 51 | 213 | 2.0 | 12.0 | 0.00 | 0.00 | 0.00 | 83 | 1099.8 |
| 20260505032004 | 51 | 225 | 1.0 | 5.0 | 0.00 | 0.00 | 0.00 | 82 | 1099.8 |
| 20260505031504 | 51 | 225 | 2.0 | 7.0 | 0.00 | 0.00 | 0.00 | 82 | 1099.8 |
| 20260505031005 | 51 | 219 | 3.0 | 7.0 | 0.00 | 0.00 | 0.00 | 82 | 1099.8 |
| 20260505030504 | 51 | 214 | 3.0 | 7.0 | 0.00 | 0.00 | 0.00 | 81 | 1099.8 |
| 20260505030004 | 51 | 192 | 2.0 | 8.0 | 0.00 | 0.00 | 0.00 | 81 | 1099.8 |
| 20260505025004 | 52 | 223 | 2.0 | 6.0 | 0.00 | 0.00 | 0.00 | 80 | 1099.8 |
| 20260505024004 | 52 | 225 | 4.0 | 12.0 | 0.00 | 0.00 | 0.00 | 79 | 1099.8 |
| 20260505023504 | 52 | 229 | 3.0 | 7.0 | 0.00 | 0.00 | 0.00 | 79 | 1099.8 |